Location: Albuquerque Trailhead
(34.7934°N, 106.3736°W)
Time: 12:18:35
(UTC+00:00)

Cosmos 372 Rocket - Pass Details

Date: 20 June 2021
Orbit: 737 x 768 km, 74.1° (Epoch: 31 July)

Event Time Altitude Azimuth Distance (km) Brightness Sun altitude
Rises 09:25:06 0° 335° (NNW) 3,236 7.7 -23.2°
Reaches altitude 10° 09:27:33 10° 330° (NNW) 2,308 6.8 -22.9°
Maximum altitude 09:32:32 46° 258° (WSW) 1,026 4.3 -22.3°
Enters shadow 09:32:35 46° 256° (WSW) 1,026 4.3 -22.3°
